Grand Junction, CO

8:24 PM MST on December 04, 2016 (GMT -0700)
Walker

Weather History for KGJT - October, 2012

Change the Weather History Date:

Wednesday, October 24, 2012

  Actual Average Record
Temperature  
Mean Temperature 48 °F 50 °F  
Max Temperature 61 °F 63 °F 77 °F (1992)
Min Temperature 35 °F 37 °F 18 °F (1975)
Degree Days  
Heating Degree Days 17 15  
Month to date heating degree days 226 254  
Since 1 July heating degree days 264 328  
Cooling Degree Days 0 0  
Month to date cooling degree days 1 1  
Year to date cooling degree days 1515 1123  
Moisture  
Dew Point 30 °F    
Average Humidity 54    
Maximum Humidity 86    
Minimum Humidity 22    
Precipitation  
Precipitation 0.07 in 0.03 in 0.39 in (1921)
Month to date precipitation 0.29 0.84  
Year to date precipitation 3.31 7.88  
Snow  
Snow 0.00 in 0.00 in 3.40 in (1975)
Month to date snowfall 0.0 0.2  
Since 1 July snowfall 0.0 0.2  
Since 1 September snowfall 0.0 0.2  
Snow Depth 0.00 in    
Sea Level Pressure  
Sea Level Pressure 29.78 in    
Wind  
Wind Speed 10 mph (SW)    
Max Wind Speed 37 mph    
Max Gust Speed 44 mph    
Visibility 10 miles    
Events Rain    
T = Trace of Precipitation, MM = Missing Value Source: NWS Daily Summary

Daily Weather History Graph

Daily Weather History Graph

Search for Another Location

Airport or City:

Trip Planner

Search our weather history database for the weather conditions in past years. The results will help you decide how hot, cold, wet, or windy it might be!

Date:

Astronomy

Oct. 24, 2012 Rise Set
Actual Time 7:33 AM MDT 6:22 PM MDT
Civil Twilight 7:06 AM MDT 6:49 PM MDT
Nautical Twilight 6:35 AM MDT 7:20 PM MDT
Astronomical Twilight 6:04 AM MDT 7:51 PM MDT
Moon 3:38 PM MDT (10/24) 2:34 AM MDT (10/24)
Length of Visible Light 11h 43m
Length of Day
10h 48m
Waxing Gibbous, 76% of the Moon is Illuminated
Oct 24
Waxing Gibbous
Oct 29
Full
Nov 6
Last Quarter
Nov 13
New
Nov 20
First Quarter

Hourly Weather History & Observations

Time (MDT) Temp. Windchill Dew Point Humidity Pressure Visibility Wind Dir Wind Speed Gust Speed Precip Events Conditions
12:53 AM 57.0 °F - 25.0 °F 29% 29.63 in 10.0 mi Calm Calm - N/A   Clear
1:53 AM 60.1 °F - 26.1 °F 27% 29.62 in 10.0 mi SSW 5.8 mph - N/A   Clear
2:53 AM 54.0 °F - 26.1 °F 34% 29.64 in 10.0 mi East 3.5 mph - N/A   Clear
3:53 AM 57.9 °F - 30.0 °F 35% 29.62 in 10.0 mi South 5.8 mph - N/A   Clear
4:53 AM 57.0 °F - 30.9 °F 37% 29.63 in 10.0 mi SSE 6.9 mph - N/A   Clear
5:53 AM 55.0 °F - 30.0 °F 38% 29.65 in 10.0 mi SE 13.8 mph - N/A   Clear
6:53 AM 57.0 °F - 28.9 °F 34% 29.65 in 10.0 mi SE 10.4 mph - N/A   Clear
7:53 AM 57.0 °F - 28.0 °F 33% 29.66 in 10.0 mi SE 12.7 mph - N/A   Clear
8:53 AM 57.0 °F - 28.0 °F 33% 29.68 in 10.0 mi SE 9.2 mph - N/A   Clear
9:53 AM 60.1 °F - 26.1 °F 27% 29.66 in 10.0 mi SSE 8.1 mph - N/A   Clear
10:53 AM 61.0 °F - 25.0 °F 25% 29.65 in 10.0 mi NW 16.1 mph - N/A   Clear
11:53 AM 61.0 °F - 21.9 °F 22% 29.63 in 10.0 mi WNW 18.4 mph - N/A   Clear
12:53 PM 57.9 °F - 23.0 °F 26% 29.65 in 10.0 mi West 6.9 mph - N/A   Overcast
1:53 PM 57.9 °F - 21.9 °F 25% 29.62 in 10.0 mi West 15.0 mph - N/A   Overcast
2:53 PM 57.2 °F - 26.6 °F 31% 29.76 in 10.0 mi West 20.7 mph 31.1 mph N/A   Overcast
3:53 PM 53.1 °F - 30.9 °F 43% 29.69 in 10.0 mi West 21.9 mph 32.2 mph N/A   Mostly Cloudy
4:53 PM 42.1 °F 32.1 °F 39.0 °F 89% 29.81 in 4.0 mi NW 25.3 mph 31.1 mph 0.01 in Rain Rain
5:53 PM 41.0 °F 33.9 °F 37.9 °F 89% 29.88 in 6.0 mi WNW 12.7 mph - 0.05 in Rain Rain
6:12 PM 39.2 °F 35.0 °F 39.2 °F 100% 29.97 in 10.0 mi WSW 5.8 mph - N/A Rain Light Rain
6:53 PM 41.0 °F - 37.9 °F 89% 29.91 in 10.0 mi Calm Calm - 0.01 in   Mostly Cloudy
7:41 PM 39.2 °F 35.9 °F 33.8 °F 81% 30.00 in 10.0 mi North 4.6 mph - 0.00 in Rain Light Rain
7:50 PM 39.2 °F 32.5 °F 33.8 °F 81% 30.00 in 10.0 mi NE 10.4 mph - 0.00 in   Overcast
7:53 PM 39.9 °F 33.9 °F 34.0 °F 79% 29.93 in 10.0 mi NNE 9.2 mph - 0.00 in   Overcast
8:53 PM 37.0 °F 33.3 °F 32.0 °F 82% 29.96 in 10.0 mi NNE 4.6 mph - N/A   Clear
9:53 PM 37.0 °F 33.3 °F 32.0 °F 82% 29.97 in 10.0 mi South 4.6 mph - N/A   Clear
10:53 PM 35.1 °F - 30.9 °F 85% 29.99 in 10.0 mi Calm Calm - N/A   Mostly Cloudy
11:53 PM 35.1 °F 30.1 °F 30.9 °F 85% 30.01 in 10.0 mi NE 5.8 mph - N/A   Mostly Cloudy